Location: Chevoux
(46.3801°N, 4.9476°E)
Time: 17:31:11
(UTC+00:00)

Cosmos 2150 Rocket - Pass Details

Date: 28 January 2021
Orbit: 748 x 808 km, 74.0° (Epoch: 01 March)

Event Time Altitude Azimuth Distance (km) Brightness Sun altitude
Rises 18:37:13 0° 189° (S) 3,182 7.4 -20.4°
Reaches altitude 10° 18:39:35 10° 186° (S) 2,266 6.6 -20.8°
Maximum altitude 18:44:37 62° 107° (ESE) 853 3.9 -21.7°
Enters shadow 18:45:57 46° 52° (NE) 1,018 4.2 -21.9°
